EW2895 Weather Reports


time (UTC)temp
C
wind
direction
speed
KPH
gust
KPH
rain 1hr
cm
rain 24hr
cm
rain mn
cm
humidity
%
barometer
mb
20260503200302 15 160 1.6 11.3 0.00 0.00 0.00 44 1011.5
20260503195802 15 185 0.0 9.7 0.00 0.00 0.00 42 1012.2
20260503195254 15 245 1.6 11.3 0.00 0.00 0.00 43 1012.2
20260503195223 15 245 1.6 11.3 0.00 0.00 0.00 42 1012.2
20260503194222 15 283 1.6 11.3 0.00 0.00 0.00 44 1013.1
20260503193720 15 180 1.6 11.3 0.00 0.00 0.00 41 1013.1
20260503193221 15 284 1.6 17.7 0.00 0.00 0.00 43 1013.1
20260503192720 15 232 1.6 17.7 0.00 0.00 0.00 42 1013.1
20260503192210 15 262 1.6 11.3 0.00 0.00 0.00 42 1013.1
20260503191708 15 175 1.6 12.9 0.00 0.00 0.00 42 1013.1
20260503191208 15 283 0.0 12.9 0.00 0.00 0.00 42 1012.9
20260503190708 16 260 1.6 12.9 0.00 0.00 0.00 42 1012.9
20260503190208 16 202 3.2 12.9 0.00 0.00 0.00 42 1012.9
20260503190203 16 167 1.6 17.7 0.00 0.00 0.00 42 1012.8
20260503185206 16 185 1.6 11.3 0.00 0.00 0.00 39 1012.8
20260503185201 16 265 1.6 17.7 0.00 0.00 0.00 40 1012.8
20260503184154 16 130 1.6 14.5 0.00 0.00 0.00 41 1013.1
20260503183654 16 160 1.6 14.5 0.00 0.00 0.00 40 1013.1
20260503183148 15 222 1.6 6.4 0.00 0.00 0.00 41 1013.1
20260503182639 15 222 1.6 8.0 0.00 0.00 0.00 44 1013.7
20260503182118 15 276 1.6 8.0 0.00 0.00 0.00 42 1013.7
20260503181618 15 280 1.6 11.3 0.00 0.00 0.00 46 1013.7
20260503181115 14 280 1.6 11.3 0.00 0.00 0.00 41 1014.2
20260503180604 14 254 1.6 11.3 0.00 0.00 0.00 42 1014.2
20260503180100 14 220 0.0 4.8 0.00 0.00 0.00 42 1014.2
20260503175536 14 273 1.6 11.3 0.00 0.00 0.00 43 1014.4
20260503175025 14 270 3.2 11.3 0.00 0.00 0.00 41 1014.7
20260503175021 14 256 3.2 11.3 0.00 0.00 0.00 42 1014.4
20260503174025 15 244 1.6 11.3 0.00 0.00 0.00 42 1014.7
20260503174020 15 198 1.6 11.3 0.00 0.00 0.00 39 1014.7
20260503172952 15 245 3.2 16.1 0.00 0.00 0.00 40 1014.8
20260503172453 15 231 3.2 22.5 0.00 0.00 0.00 38 1014.8
20260503171940 15 233 3.2 22.5 0.00 0.00 0.00 38 1014.8
20260503171439 15 335 3.2 20.9 0.00 0.00 0.00 40 1014.9
20260503171424 15 268 3.2 12.9 0.00 0.00 0.00 38 1014.9
20260503170410 15 284 1.6 16.1 0.00 0.00 0.00 42 1014.9
20260503150729 13 212 1.6 6.4 0.00 0.00 0.00 44 1016.3
20260503150220 13 250 1.6 9.7 0.00 0.00 0.00 42 1016.3
20260503130913 8 254 0.0 12.9 0.00 0.00 0.00 53 1016.7
20260503130411 8 258 0.0 12.9 0.00 0.00 0.00 55 1016.7
20260503120138 4 316 0.0 3.2 0.00 0.00 0.00 69 1016.8
20260503110628 2 316 0.0 0.0 0.00 0.00 0.00 76 1016.4
20260503090119 2 316 0.0 0.0 0.00 0.00 0.00 79 1016.0
20260503081219 2 316 0.0 0.0 0.00 0.00 0.00 80 1016.1
20260503081212 2 316 0.0 0.0 0.00 0.00 0.00 80 1016.1
20260503080202 2 316 0.0 0.0 0.00 0.00 0.00 80 1016.1
20260503072600 2 316 0.0 0.0 0.00 0.00 0.00 81 1016.1
20260503072020 2 316 0.0 0.0 0.00 0.00 0.00 81 1016.1
20260503071511 2 316 0.0 0.0 0.00 0.00 0.00 82 1016.1
20260503070959 2 316 0.0 0.0 0.00 0.00 0.00 82 1016.1
20260503070446 2 316 0.0 0.0 0.00 0.00 0.00 82 1016.1
20260503054749 2 316 0.0 0.0 0.00 0.00 0.00 80 1016.7
20260503054248 2 316 0.0 0.0 0.00 0.00 0.00 80 1016.7
20260503053730 2 316 0.0 0.0 0.00 0.00 0.00 79 1016.7
20260503053221 2 316 0.0 0.0 0.00 0.00 0.00 79 1016.7
20260503052720 2 316 0.0 0.0 0.00 0.00 0.00 78 1016.7
20260503052220 2 316 0.0 0.0 0.00 0.00 0.00 78 1016.7
20260503051721 3 316 0.0 0.0 0.00 0.00 0.00 78 1016.7
20260503051142 3 316 0.0 0.0 0.00 0.00 0.00 78 1016.8
20260503050625 3 316 0.0 0.0 0.00 0.00 0.00 77 1016.8
20260503050119 3 316 0.0 0.0 0.00 0.00 0.00 77 1016.8
20260503045619 3 316 0.0 0.0 0.00 0.00 0.00 77 1016.9
20260503045107 3 316 0.0 0.0 0.00 0.00 0.00 76 1016.9
20260503044607 3 316 0.0 0.0 0.00 0.00 0.00 76 1016.9
20260503044107 3 316 0.0 0.0 0.00 0.00 0.00 76 1016.9
20260503043556 3 316 0.0 0.0 0.00 0.00 0.00 75 1016.9
20260503043044 3 316 0.0 0.0 0.00 0.00 0.00 75 1016.9
20260503042538 3 316 0.0 0.0 0.00 0.00 0.00 74 1016.8
20260503042006 3 316 0.0 0.0 0.00 0.00 0.00 74 1016.8
20260503041506 3 316 0.0 0.0 0.00 0.00 0.00 74 1016.8
20260503040958 3 316 0.0 0.0 0.00 0.00 0.00 73 1016.8
20260503040951 3 316 0.0 0.0 0.00 0.00 0.00 73 1016.8
20260503035950 3 316 0.0 0.0 0.00 0.00 0.00 71 1016.8
20260503035449 3 316 0.0 0.0 0.00 0.00 0.00 71 1016.8
20260503034942 3 316 0.0 0.0 0.00 0.00 0.00 71 1016.8
20260503034419 3 316 0.0 0.0 0.00 0.00 0.00 70 1016.8
20260503033913 3 316 0.0 0.0 0.00 0.00 0.00 70 1016.8
20260503033402 3 316 0.0 0.0 0.00 0.00 0.00 70 1016.8
20260503032855 3 316 0.0 0.0 0.00 0.00 0.00 69 1016.9
20260503032351 4 316 0.0 0.0 0.00 0.00 0.00 68 1016.9
20260503031856 4 316 0.0 0.0 0.00 0.00 0.00 67 1017.0
20260503031850 4 316 0.0 0.0 0.00 0.00 0.00 68 1016.9
20260503031337 4 316 0.0 0.0 0.00 0.00 0.00 66 1017.0
20260503030311 4 316 0.0 0.0 0.00 0.00 0.00 66 1017.0
20260503025744 4 316 0.0 0.0 0.00 0.00 0.00 66 1017.1
20260503025223 5 316 0.0 0.0 0.00 0.00 0.00 66 1017.1
20260503024714 5 316 0.0 0.0 0.00 0.00 0.00 65 1017.1
20260503024139 5 316 0.0 0.0 0.00 0.00 0.00 65 1016.9
20260503023555 5 316 0.0 0.0 0.00 0.00 0.00 64 1016.9
20260503023020 5 316 0.0 0.0 0.00 0.00 0.00 63 1016.7
20260503022520 5 316 0.0 0.0 0.00 0.00 0.00 62 1016.7
20260503022013 5 316 0.0 0.0 0.00 0.00 0.00 60 1016.7
20260503021511 5 316 0.0 0.0 0.00 0.00 0.00 60 1016.7
20260503021009 5 316 0.0 0.0 0.00 0.00 0.00 59 1016.7
20260503020506 6 316 0.0 0.0 0.00 0.00 0.00 59 1016.7
20260503020007 6 316 0.0 0.0 0.00 0.00 0.00 58 1016.5
20260503015502 6 316 0.0 0.0 0.00 0.00 0.00 58 1016.5
20260503015002 6 316 0.0 0.0 0.00 0.00 0.00 56 1016.5
20260503014446 6 316 0.0 0.0 0.00 0.00 0.00 56 1016.5
20260503014435 6 316 0.0 0.0 0.00 0.00 0.00 54 1016.5
20260503013432 6 316 0.0 0.0 0.00 0.00 0.00 51 1016.5
20260503012922 7 316 0.0 0.0 0.00 0.00 0.00 51 1016.3
20260503012917 7 316 0.0 0.0 0.00 0.00 0.00 51 1016.3
20260503012407 7 316 0.0 0.0 0.00 0.00 0.00 50 1016.3
20260503011346 7 316 0.0 0.0 0.00 0.00 0.00 49 1016.3
20260503010836 7 316 0.0 0.0 0.00 0.00 0.00 46 1016.3
20260503010337 8 316 0.0 0.0 0.00 0.00 0.00 47 1016.3
20260503005837 8 316 0.0 0.0 0.00 0.00 0.00 46 1016.2
20260503005322 8 316 0.0 0.0 0.00 0.00 0.00 46 1016.2
20260503004813 8 316 0.0 0.0 0.00 0.00 0.00 45 1016.2
20260503004308 9 316 0.0 0.0 0.00 0.00 0.00 43 1016.2
20260503003751 9 316 0.0 0.0 0.00 0.00 0.00 43 1016.2
20260503003238 9 316 0.0 0.0 0.00 0.00 0.00 40 1016.2
20260503002736 10 316 0.0 1.6 0.00 0.00 0.00 40 1016.0
20260503002237 10 316 0.0 1.6 0.00 0.00 0.00 36 1016.0
20260503001723 10 316 0.0 0.0 0.00 0.00 0.00 38 1016.1
20260503001719 10 316 0.0 0.0 0.00 0.00 0.00 36 1016.0
20260503000716 10 316 0.0 6.4 0.00 0.00 0.00 36 1016.1
20260503000159 10 316 0.0 6.4 0.00 0.00 0.00 35 1016.1
20260502235659 10 316 0.0 4.8 0.00 0.00 0.00 37 1016.1
20260502235155 10 308 0.0 4.8 0.00 0.00 0.00 37 1016.1
20260502234645 10 308 0.0 1.6 0.00 0.00 0.00 36 1016.1
20260502234621 10 308 0.0 1.6 0.00 0.00 0.00 35 1016.0
20260502233621 10 308 0.0 3.2 0.00 0.00 0.00 35 1016.0
20260502233119 10 308 0.0 3.2 0.00 0.00 0.00 36 1016.0
20260502232616 10 308 0.0 4.8 0.00 0.00 0.00 35 1016.1
20260502232055 10 308 0.0 4.8 0.00 0.00 0.00 33 1016.1
20260502231553 10 308 1.6 11.3 0.00 0.00 0.00 35 1016.1
20260502231549 10 308 0.0 8.0 0.00 0.00 0.00 34 1016.1
20260502230524 11 308 1.6 11.3 0.00 0.00 0.00 34 1016.1
20260502230510 11 6 1.6 14.5 0.00 0.00 0.00 34 1016.1
20260502225459 11 303 1.6 14.5 0.00 0.00 0.00 31 1016.1
20260502224958 11 339 1.6 9.7 0.00 0.00 0.00 32 1016.1
20260502224448 11 297 1.6 11.3 0.00 0.00 0.00 31 1016.1
20260502223945 11 25 0.0 11.3 0.00 0.00 0.00 34 1016.1
20260502223442 12 343 0.0 6.4 0.00 0.00 0.00 32 1016.1
20260502222933 12 343 0.0 6.4 0.00 0.00 0.00 31 1016.1
20260502222432 12 31 1.6 11.3 0.00 0.00 0.00 32 1016.1
20260502221913 12 30 0.0 11.3 0.00 0.00 0.00 33 1016.1
20260502221410 12 1 1.6 11.3 0.00 0.00 0.00 32 1016.1
20260502220907 12 1 1.6 11.3 0.00 0.00 0.00 31 1016.1
20260502220406 11 2 1.6 8.0 0.00 0.00 0.00 36 1016.1
20260502215854 11 2 1.6 12.9 0.00 0.00 0.00 31 1016.0
20260502215341 12 226 3.2 16.1 0.00 0.00 0.00 30 1016.0
20260502214832 12 285 1.6 11.3 0.00 0.00 0.00 30 1016.0
20260502214330 12 283 3.2 12.9 0.00 0.00 0.00 29 1016.0
20260502214323 12 278 1.6 11.3 0.00 0.00 0.00 31 1016.0
20260502213825 13 317 1.6 12.9 0.00 0.00 0.00 30 1016.0
20260502212821 12 222 1.6 11.3 0.00 0.00 0.00 32 1016.0
20260502212321 12 306 0.0 9.7 0.00 0.00 0.00 30 1016.0
20260502211810 12 222 3.2 20.9 0.00 0.00 0.00 31 1016.0
20260502211245 12 339 3.2 20.9 0.00 0.00 0.00 30 1016.0
20260502210745 12 337 1.6 11.3 0.00 0.00 0.00 31 1016.0
20260502210739 13 349 3.2 11.3 0.00 0.00 0.00 33 1016.0
20260502205729 12 53 3.2 12.9 0.00 0.00 0.00 31 1016.1
20260502205724 12 348 3.2 11.3 0.00 0.00 0.00 30 1016.1
20260502205328 12 299 3.2 12.9 0.00 0.00 0.00 30 1016.1
20260502204225 12 13 4.8 14.5 0.00 0.00 0.00 35 1016.1
20260502203722 12 6 3.2 14.5 0.00 0.00 0.00 32 1016.1
20260502203221 12 341 4.8 12.9 0.00 0.00 0.00 35 1016.1
20260502202720 12 18 4.8 12.9 0.00 0.00 0.00 32 1016.2
20260502202219 12 359 1.6 12.9 0.00 0.00 0.00 33 1016.2
20260502201720 11 274 3.2 24.1 0.00 0.00 0.00 32 1016.2
20260502201208 11 274 4.8 24.1 0.00 0.00 0.00 30 1016.2
20260502200654 12 326 3.2 22.5 0.00 0.00 0.00 33 1016.2
20260502200650 12 324 3.2 12.9 0.00 0.00 0.00 34 1016.2